date,time,SUV Intensity [MED/Hr],UV Index,Daily total [MED],Since Last [MED]
19/06/2023,23:58:00,-0.001,0.0,10.245,10.245
19/06/2023,23:58:59,-0.001,0.0,10.245,0.0
20/06/2023,00:00:00,-0.001,0.0,0.0,-10.245
20/06/2023,00:01:00,0.000,0.0,0.0,0.0
20/06/2023,00:01:59,0.000,0.0,0.0,0.0
20/06/2023,00:03:00,0.001,0.0,0.0,0.0
20/06/2023,00:03:59,0.000,0.0,0.0,0.0
20/06/2023,00:04:59,0.000,0.0,0.0,0.0
20/06/2023,00:06:00,0.000,0.0,0.0,0.0
20/06/2023,00:07:00,0.000,0.0,0.0,0.0
20/06/2023,00:08:00,-0.000,0.0,0.0,0.0
20/06/2023,00:09:00,0.000,0.0,0.0,0.0
20/06/2023,00:10:00,0.001,0.0,0.0,0.0
20/06/2023,00:11:00,0.000,0.0,0.0,0.0
20/06/2023,00:12:00,0.000,0.0,0.0,0.0
20/06/2023,00:13:00,0.000,0.0,0.0,0.0
20/06/2023,00:14:00,0.000,0.0,0.0,0.0
20/06/2023,00:15:00,0.000,0.0,0.0,0.0
20/06/2023,00:16:00,0.000,0.0,0.0,0.0
20/06/2023,00:17:00,-0.001,0.0,0.0,0.0
20/06/2023,00:18:00,0.000,0.0,0.0,0.0
20/06/2023,00:18:59,0.000,0.0,0.0,0.0
20/06/2023,00:20:00,0.000,0.0,0.0,0.0
20/06/2023,00:21:00,0.001,0.0,0.0,0.0
20/06/2023,00:22:00,0.001,0.0,0.0,0.0
20/06/2023,00:23:00,0.001,0.0,0.0,0.0
20/06/2023,00:24:00,0.001,0.0,0.0,0.0
20/06/2023,00:25:00,-0.001,0.0,0.0,0.0
20/06/2023,00:26:00,-0.001,0.0,0.0,0.0
20/06/2023,00:27:00,0.000,0.0,0.0,0.0
20/06/2023,00:27:59,-0.001,0.0,0.0,0.0
20/06/2023,00:29:00,0.001,0.0,0.0,0.0
20/06/2023,00:29:59,0.000,0.0,0.0,0.0
20/06/2023,00:30:59,0.000,0.0,0.0,0.0
20/06/2023,00:32:00,0.000,0.0,0.0,0.0
20/06/2023,00:33:00,0.000,0.0,0.0,0.0
20/06/2023,00:34:00,0.000,0.0,0.0,0.0
20/06/2023,00:35:00,0.000,0.0,0.0,0.0
20/06/2023,00:36:00,0.000,0.0,0.0,0.0
20/06/2023,00:36:59,0.000,0.0,0.0,0.0
20/06/2023,00:38:00,0.000,0.0,0.0,0.0
20/06/2023,00:39:00,0.000,0.0,0.0,0.0
20/06/2023,00:39:59,0.000,0.0,0.0,0.0
20/06/2023,00:41:00,0.000,0.0,0.0,0.0
20/06/2023,00:42:00,0.001,0.0,0.0,0.0
20/06/2023,00:43:00,0.001,0.0,0.0,0.0
20/06/2023,00:43:59,-0.000,0.0,0.0,0.0
20/06/2023,00:45:00,-0.001,0.0,0.0,0.0
20/06/2023,00:46:00,0.000,0.0,0.0,0.0
20/06/2023,00:47:00,0.000,0.0,0.0,0.0
20/06/2023,00:48:00,0.000,0.0,0.0,0.0
20/06/2023,00:49:00,0.000,0.0,0.0,0.0
20/06/2023,00:50:00,0.001,0.0,0.0,0.0
20/06/2023,00:51:00,0.000,0.0,0.0,0.0
20/06/2023,00:52:00,0.000,0.0,0.0,0.0
20/06/2023,00:53:00,0.000,0.0,0.0,0.0
20/06/2023,00:54:00,0.000,0.0,0.0,0.0
20/06/2023,00:55:00,0.000,0.0,0.0,0.0
20/06/2023,00:55:59,0.001,0.0,0.0,0.0
20/06/2023,00:57:00,0.000,0.0,0.0,0.0
20/06/2023,00:58:00,0.000,0.0,0.0,0.0
20/06/2023,00:59:00,-0.001,0.0,0.0,0.0
20/06/2023,00:59:59,0.001,0.0,0.0,0.0
20/06/2023,01:01:00,0.000,0.0,0.0,0.0
20/06/2023,01:02:00,0.000,0.0,0.0,0.0
20/06/2023,01:03:00,0.001,0.0,0.0,0.0
20/06/2023,01:03:59,0.000,0.0,0.0,0.0
20/06/2023,01:05:00,0.000,0.0,0.0,0.0
20/06/2023,01:06:00,0.000,0.0,0.0,0.0
20/06/2023,01:06:59,-0.001,0.0,0.0,0.0
20/06/2023,01:08:02,0.000,0.0,0.0,0.0
20/06/2023,01:09:00,0.000,0.0,0.0,0.0
20/06/2023,01:10:00,0.000,0.0,0.0,0.0
20/06/2023,01:11:00,0.000,0.0,0.0,0.0
20/06/2023,01:12:00,0.000,0.0,0.0,0.0
20/06/2023,01:13:00,0.001,0.0,0.0,0.0
20/06/2023,01:13:59,0.000,0.0,0.0,0.0
20/06/2023,01:15:00,0.000,0.0,0.0,0.0
20/06/2023,01:16:00,0.000,0.0,0.0,0.0
20/06/2023,01:16:59,0.000,0.0,0.0,0.0
20/06/2023,01:18:00,0.000,0.0,0.0,0.0
20/06/2023,01:19:31,0.000,0.0,0.0,0.0
20/06/2023,01:21:00,0.001,0.0,0.0,0.0
20/06/2023,01:22:00,0.000,0.0,0.0,0.0
20/06/2023,01:23:00,0.001,0.0,0.0,0.0
20/06/2023,01:23:59,0.000,0.0,0.0,0.0
20/06/2023,01:24:59,0.000,0.0,0.0,0.0
20/06/2023,01:26:00,-0.000,0.0,0.0,0.0
20/06/2023,01:27:00,0.000,0.0,0.0,0.0
20/06/2023,01:28:00,0.000,0.0,0.0,0.0
20/06/2023,01:28:59,0.000,0.0,0.0,0.0
20/06/2023,01:30:00,0.000,0.0,0.0,0.0
20/06/2023,01:31:00,0.001,0.0,0.0,0.0
20/06/2023,01:32:00,0.000,0.0,0.0,0.0
20/06/2023,01:33:00,0.000,0.0,0.0,0.0
20/06/2023,01:34:00,0.000,0.0,0.0,0.0
20/06/2023,01:35:00,0.000,0.0,0.0,0.0
20/06/2023,01:36:00,0.000,0.0,0.0,0.0
20/06/2023,01:37:00,0.000,0.0,0.0,0.0
20/06/2023,01:38:00,0.000,0.0,0.0,0.0
20/06/2023,01:39:00,0.000,0.0,0.0,0.0
20/06/2023,01:40:00,0.000,0.0,0.0,0.0
20/06/2023,01:41:00,0.000,0.0,0.0,0.0
20/06/2023,01:41:59,0.000,0.0,0.0,0.0
20/06/2023,01:43:00,0.001,0.0,0.0,0.0
20/06/2023,01:44:00,0.001,0.0,0.0,0.0
20/06/2023,01:45:00,0.001,0.0,0.0,0.0
20/06/2023,01:45:59,0.001,0.0,0.0,0.0
20/06/2023,01:47:00,0.001,0.0,0.0,0.0
20/06/2023,01:48:00,0.001,0.0,0.0,0.0
20/06/2023,01:49:00,0.001,0.0,0.0,0.0
20/06/2023,01:49:59,0.001,0.0,0.0,0.0
20/06/2023,01:51:00,0.001,0.0,0.0,0.0
20/06/2023,01:52:00,0.001,0.0,0.0,0.0
20/06/2023,01:52:59,0.001,0.0,0.0,0.0
20/06/2023,01:54:00,0.001,0.0,0.0,0.0
20/06/2023,01:55:00,0.001,0.0,0.0,0.0
20/06/2023,01:56:00,0.001,0.0,0.0,0.0
20/06/2023,01:56:59,0.001,0.0,0.0,0.0
20/06/2023,01:58:00,0.001,0.0,0.0,0.0
20/06/2023,01:58:59,0.001,0.0,0.0,0.0
20/06/2023,02:00:00,0.000,0.0,0.0,0.0
20/06/2023,02:01:00,0.001,0.0,0.0,0.0
20/06/2023,02:01:59,0.001,0.0,0.0,0.0
20/06/2023,02:03:00,0.001,0.0,0.0,0.0
20/06/2023,02:04:00,0.001,0.0,0.0,0.0
20/06/2023,02:05:00,0.001,0.0,0.0,0.0
20/06/2023,02:06:00,0.001,0.0,0.0,0.0
20/06/2023,02:07:00,0.001,0.0,0.0,0.0
20/06/2023,02:08:00,0.001,0.0,0.0,0.0
20/06/2023,02:09:00,0.001,0.0,0.0,0.0
20/06/2023,02:09:59,0.000,0.0,0.0,0.0
20/06/2023,02:11:00,0.001,0.0,0.0,0.0
20/06/2023,02:11:59,0.001,0.0,0.0,0.0
20/06/2023,02:12:59,0.001,0.0,0.0,0.0
20/06/2023,02:14:00,0.001,0.0,0.0,0.0
20/06/2023,02:15:00,0.001,0.0,0.0,0.0
20/06/2023,02:16:00,0.001,0.0,0.0,0.0
20/06/2023,02:17:00,0.001,0.0,0.0,0.0
20/06/2023,02:18:00,0.001,0.0,0.0,0.0
20/06/2023,02:18:59,0.001,0.0,0.0,0.0
20/06/2023,02:20:00,0.001,0.0,0.0,0.0
20/06/2023,02:21:00,0.001,0.0,0.0,0.0
20/06/2023,02:22:00,0.001,0.0,0.0,0.0
20/06/2023,02:23:00,0.001,0.0,0.0,0.0
20/06/2023,02:24:00,0.001,0.0,0.0,0.0
20/06/2023,02:25:00,0.001,0.0,0.0,0.0
20/06/2023,02:26:00,0.001,0.0,0.0,0.0
20/06/2023,02:27:00,0.001,0.0,0.0,0.0
20/06/2023,02:27:59,0.001,0.0,0.0,0.0
20/06/2023,02:29:00,0.001,0.0,0.0,0.0
20/06/2023,02:30:00,0.001,0.0,0.0,0.0
20/06/2023,02:31:00,0.001,0.0,0.0,0.0
20/06/2023,02:31:59,0.001,0.0,0.0,0.0
20/06/2023,02:33:00,0.001,0.0,0.0,0.0
20/06/2023,02:34:00,0.001,0.0,0.0,0.0
20/06/2023,02:35:00,0.001,0.0,0.0,0.0
20/06/2023,02:36:00,0.001,0.0,0.0,0.0
20/06/2023,02:36:59,0.001,0.0,0.0,0.0
20/06/2023,02:38:00,0.001,0.0,0.0,0.0
20/06/2023,02:39:00,0.001,0.0,0.0,0.0
20/06/2023,02:40:00,0.001,0.0,0.0,0.0
20/06/2023,02:40:59,0.001,0.0,0.0,0.0
20/06/2023,02:42:00,0.001,0.0,0.0,0.0
20/06/2023,02:43:00,0.001,0.0,0.0,0.0
20/06/2023,02:44:00,0.001,0.0,0.0,0.0
20/06/2023,02:44:59,0.001,0.0,0.0,0.0
20/06/2023,02:46:00,0.001,0.0,0.0,0.0
20/06/2023,02:47:00,0.001,0.0,0.0,0.0
20/06/2023,02:47:59,0.001,0.0,0.0,0.0
20/06/2023,02:49:00,0.001,0.0,0.0,0.0
20/06/2023,02:50:00,0.001,0.0,0.0,0.0
20/06/2023,02:51:00,0.001,0.0,0.0,0.0
20/06/2023,02:52:00,0.001,0.0,0.0,0.0
20/06/2023,02:53:00,0.001,0.0,0.0,0.0
20/06/2023,02:54:00,0.001,0.0,0.0,0.0
20/06/2023,02:55:00,0.001,0.0,0.0,0.0
20/06/2023,02:56:00,0.001,0.0,0.0,0.0
20/06/2023,02:57:00,0.001,0.0,0.0,0.0
20/06/2023,02:58:00,0.001,0.0,0.0,0.0
20/06/2023,02:58:59,0.000,0.0,0.0,0.0
20/06/2023,03:00:00,0.001,0.0,0.0,0.0
20/06/2023,03:01:00,0.001,0.0,0.0,0.0
20/06/2023,03:02:00,0.001,0.0,0.0,0.0
20/06/2023,03:03:00,0.001,0.0,0.0,0.0
20/06/2023,03:04:00,0.001,0.0,0.0,0.0
20/06/2023,03:05:00,0.001,0.0,0.0,0.0
20/06/2023,03:06:00,0.001,0.0,0.0,0.0
20/06/2023,03:07:00,0.001,0.0,0.0,0.0
20/06/2023,03:08:00,0.001,0.0,0.0,0.0
20/06/2023,03:09:00,0.001,0.0,0.0,0.0
20/06/2023,03:10:00,0.001,0.0,0.0,0.0
20/06/2023,03:11:00,0.002,0.0,0.0,0.0
20/06/2023,03:12:00,0.001,0.0,0.0,0.0
20/06/2023,03:13:00,0.001,0.0,0.0,0.0
20/06/2023,03:14:00,0.001,0.0,0.0,0.0
20/06/2023,03:15:00,0.002,0.0,0.0,0.0
20/06/2023,03:16:00,0.001,0.0,0.0,0.0
20/06/2023,03:17:00,0.001,0.0,0.0,0.0
20/06/2023,03:18:01,0.001,0.0,0.0,0.0
20/06/2023,03:19:01,0.001,0.0,0.0,0.0
20/06/2023,03:20:00,0.001,0.0,0.0,0.0
20/06/2023,03:21:00,0.001,0.0,0.0,0.0
20/06/2023,03:22:00,0.001,0.0,0.0,0.0
20/06/2023,03:23:00,0.002,0.0,0.0,0.0
20/06/2023,03:24:00,0.001,0.0,0.0,0.0
20/06/2023,03:25:00,0.002,0.0,0.0,0.0
20/06/2023,03:26:00,0.001,0.0,0.0,0.0
20/06/2023,03:26:59,0.001,0.0,0.0,0.0
20/06/2023,03:28:00,0.001,0.0,0.0,0.0
20/06/2023,03:29:00,0.002,0.0,0.0,0.0
20/06/2023,03:30:00,0.001,0.0,0.0,0.0
20/06/2023,03:31:00,0.001,0.0,0.0,0.0
20/06/2023,03:32:00,0.001,0.0,0.0,0.0
20/06/2023,03:33:00,0.001,0.0,0.0,0.0
20/06/2023,03:34:00,0.001,0.0,0.0,0.0
20/06/2023,03:35:00,0.001,0.0,0.0,0.0
20/06/2023,03:36:00,0.001,0.0,0.0,0.0
20/06/2023,03:37:00,0.001,0.0,0.0,0.0
20/06/2023,03:38:00,0.001,0.0,0.0,0.0
20/06/2023,03:39:00,0.001,0.0,0.0,0.0
20/06/2023,03:40:00,0.001,0.0,0.0,0.0
20/06/2023,03:41:00,0.001,0.0,0.0,0.0
20/06/2023,03:41:59,0.001,0.0,0.0,0.0
20/06/2023,03:43:00,0.001,0.0,0.0,0.0
20/06/2023,03:44:00,0.001,0.0,0.0,0.0
20/06/2023,03:45:00,0.001,0.0,0.0,0.0
20/06/2023,03:46:00,0.001,0.0,0.0,0.0
20/06/2023,03:47:00,0.001,0.0,0.0,0.0
20/06/2023,03:48:00,0.001,0.0,0.0,0.0
20/06/2023,03:49:00,0.001,0.0,0.0,0.0
20/06/2023,03:50:00,0.001,0.0,0.0,0.0
20/06/2023,03:51:00,0.001,0.0,0.0,0.0
20/06/2023,03:52:00,0.001,0.0,0.0,0.0
20/06/2023,03:53:00,0.001,0.0,0.0,0.0
20/06/2023,03:54:00,0.001,0.0,0.0,0.0
20/06/2023,03:55:00,0.001,0.0,0.0,0.0
20/06/2023,03:56:00,0.001,0.0,0.0,0.0
20/06/2023,03:57:00,0.001,0.0,0.0,0.0
20/06/2023,03:58:00,0.001,0.0,0.0,0.0
20/06/2023,03:59:00,0.001,0.0,0.0,0.0
20/06/2023,04:00:00,0.001,0.0,0.0,0.0
20/06/2023,04:01:00,0.002,0.0,0.0,0.0
20/06/2023,04:02:00,0.001,0.0,0.0,0.0
20/06/2023,04:03:00,0.001,0.0,0.0,0.0
20/06/2023,04:04:00,0.001,0.0,0.0,0.0
20/06/2023,04:05:00,0.001,0.0,0.0,0.0
20/06/2023,04:06:00,0.001,0.0,0.0,0.0
20/06/2023,04:07:00,0.001,0.0,0.0,0.0
20/06/2023,04:08:00,0.001,0.0,0.0,0.0
20/06/2023,04:09:00,0.001,0.0,0.0,0.0
20/06/2023,04:10:00,0.001,0.0,0.0,0.0
20/06/2023,04:11:00,0.001,0.0,0.0,0.0
20/06/2023,04:12:00,0.002,0.0,0.0,0.0
20/06/2023,04:13:00,0.001,0.0,0.0,0.0
20/06/2023,04:13:59,0.001,0.0,0.0,0.0
20/06/2023,04:15:00,0.001,0.0,0.0,0.0
20/06/2023,04:16:00,0.001,0.0,0.0,0.0
20/06/2023,04:17:00,0.001,0.0,0.0,0.0
20/06/2023,04:18:00,0.001,0.0,0.0,0.0
20/06/2023,04:19:00,0.001,0.0,0.0,0.0
20/06/2023,04:20:00,0.001,0.0,0.0,0.0
20/06/2023,04:21:00,0.001,0.0,0.0,0.0
20/06/2023,04:22:00,0.001,0.0,0.0,0.0
20/06/2023,04:23:00,0.001,0.0,0.0,0.0
20/06/2023,04:24:00,0.001,0.0,0.0,0.0
20/06/2023,04:25:00,0.001,0.0,0.0,0.0
20/06/2023,04:26:00,0.001,0.0,0.0,0.0
20/06/2023,04:27:00,0.001,0.0,0.0,0.0
20/06/2023,04:28:00,0.001,0.0,0.0,0.0
20/06/2023,04:29:00,0.001,0.0,0.0,0.0
20/06/2023,04:30:00,0.002,0.0,0.0,0.0
20/06/2023,04:31:00,0.001,0.0,0.0,0.0
20/06/2023,04:32:00,0.001,0.0,0.0,0.0
20/06/2023,04:33:00,0.002,0.0,0.0,0.0
20/06/2023,04:34:00,0.002,0.0,0.0,0.0
20/06/2023,04:35:00,0.002,0.0,0.0,0.0
20/06/2023,04:36:00,0.002,0.0,0.0,0.0
20/06/2023,04:37:00,0.003,0.0,0.0,0.0
20/06/2023,04:38:00,0.002,0.0,0.0,0.0
20/06/2023,04:39:00,0.003,0.0,0.0,0.0
20/06/2023,04:40:00,0.003,0.0,0.0,0.0
20/06/2023,04:41:01,0.001,0.0,0.0,0.0
20/06/2023,04:42:00,0.002,0.0,0.0,0.0
20/06/2023,04:43:00,0.002,0.0,0.0,0.0
20/06/2023,04:44:01,0.002,0.0,0.0,0.0
20/06/2023,04:45:00,0.002,0.0,0.0,0.0
20/06/2023,04:46:01,0.001,0.0,0.0,0.0
20/06/2023,04:47:00,0.001,0.0,0.0,0.0
20/06/2023,04:48:00,0.002,0.0,0.0,0.0
20/06/2023,04:49:00,0.002,0.0,0.0,0.0
20/06/2023,04:50:00,0.002,0.0,0.0,0.0
20/06/2023,04:51:00,0.002,0.0,0.0,0.0
20/06/2023,04:52:00,0.003,0.0,0.0,0.0
20/06/2023,04:53:00,0.004,0.0,0.0,0.0
20/06/2023,04:54:00,0.003,0.0,0.0,0.0
20/06/2023,04:55:01,0.003,0.0,0.0,0.0
20/06/2023,04:56:00,0.003,0.0,0.0,0.0
20/06/2023,04:57:01,0.003,0.0,0.0,0.0
20/06/2023,04:57:59,0.003,0.0,0.0,0.0
20/06/2023,04:59:00,0.003,0.0,0.0,0.0
20/06/2023,05:00:00,0.003,0.0,0.0,0.0
20/06/2023,05:01:00,0.003,0.0,0.0,0.0
20/06/2023,05:02:00,0.003,0.0,0.0,0.0
20/06/2023,05:03:00,0.003,0.0,0.0,0.0
20/06/2023,05:04:00,0.003,0.0,0.0,0.0
20/06/2023,05:05:01,0.003,0.0,0.0,0.0
20/06/2023,05:06:00,0.004,0.0,0.0,0.0
20/06/2023,05:07:00,0.003,0.0,0.0,0.0
20/06/2023,05:08:01,0.003,0.0,0.0,0.0
20/06/2023,05:09:00,0.003,0.0,0.0,0.0
20/06/2023,05:10:00,0.002,0.0,0.0,0.0
20/06/2023,05:11:00,0.003,0.0,0.0,0.0
20/06/2023,05:12:00,0.003,0.0,0.0,0.0
20/06/2023,05:13:01,0.002,0.0,0.0,0.0
20/06/2023,05:14:00,0.002,0.0,0.0,0.0
20/06/2023,05:15:00,0.002,0.0,0.0,0.0
20/06/2023,05:16:00,0.003,0.0,0.0,0.0
20/06/2023,05:17:00,0.002,0.0,0.0,0.0
20/06/2023,05:18:00,0.003,0.0,0.0,0.0
20/06/2023,05:19:00,0.004,0.0,0.0,0.0
20/06/2023,05:20:01,0.004,0.0,0.0,0.0
20/06/2023,05:20:59,0.004,0.0,0.0,0.0
20/06/2023,05:22:00,0.004,0.0,0.0,0.0
20/06/2023,05:23:00,0.004,0.0,0.0,0.0
20/06/2023,05:24:00,0.004,0.0,0.0,0.0
20/06/2023,05:25:00,0.004,0.0,0.0,0.0
20/06/2023,05:26:00,0.003,0.0,0.0,0.0
20/06/2023,05:27:00,0.003,0.0,0.0,0.0
20/06/2023,05:28:00,0.003,0.0,0.0,0.0
20/06/2023,05:29:00,0.003,0.0,0.0,0.0
20/06/2023,05:30:00,0.002,0.0,0.0,0.0
20/06/2023,05:31:00,0.004,0.0,0.0,0.0
20/06/2023,05:32:00,0.003,0.0,0.0,0.0
20/06/2023,05:33:01,0.003,0.0,0.0,0.0
20/06/2023,05:34:00,0.003,0.0,0.0,0.0
20/06/2023,05:35:00,0.003,0.0,0.0,0.0
20/06/2023,05:36:00,0.004,0.0,0.0,0.0
20/06/2023,05:37:00,0.003,0.0,0.0,0.0
20/06/2023,05:38:01,0.004,0.0,0.0,0.0
20/06/2023,05:39:00,0.004,0.0,0.0,0.0
20/06/2023,05:40:00,0.005,0.0,0.0,0.0
20/06/2023,05:41:00,0.002,0.0,0.0,0.0
20/06/2023,05:42:01,0.002,0.0,0.0,0.0
20/06/2023,05:43:01,0.003,0.0,0.0,0.0
20/06/2023,05:44:00,0.003,0.0,0.0,0.0
20/06/2023,05:45:00,0.005,0.0,0.0,0.0
20/06/2023,05:46:00,0.003,0.0,0.0,0.0
20/06/2023,05:47:00,0.004,0.0,0.0,0.0
20/06/2023,05:48:00,0.003,0.0,0.0,0.0
20/06/2023,05:49:00,0.002,0.0,0.0,0.0
20/06/2023,05:50:01,0.004,0.0,0.0,0.0
20/06/2023,05:51:00,0.004,0.0,0.0,0.0
20/06/2023,05:52:00,0.004,0.0,0.0,0.0
20/06/2023,05:53:01,0.004,0.0,0.0,0.0
20/06/2023,05:54:00,0.004,0.0,0.0,0.0
20/06/2023,05:55:01,0.005,0.0,0.0,0.0
20/06/2023,05:56:00,0.003,0.0,0.0,0.0
20/06/2023,05:57:00,0.005,0.0,0.0,0.0
20/06/2023,05:58:00,0.005,0.0,0.0,0.0
20/06/2023,05:59:00,0.005,0.0,0.0,0.0
20/06/2023,06:00:00,0.005,0.0,0.0,0.0
20/06/2023,06:01:00,0.005,0.0,0.0,0.0
20/06/2023,06:02:00,0.006,0.0,0.0,0.0
20/06/2023,06:03:00,0.006,0.0,0.0,0.0
20/06/2023,06:04:01,0.008,0.0,0.0,0.0
20/06/2023,06:05:00,0.006,0.0,0.0,0.0
20/06/2023,06:06:00,0.005,0.0,0.0,0.0
20/06/2023,06:07:00,0.007,0.0,0.0,0.0
20/06/2023,06:08:00,0.010,0.0,0.001,0.001
20/06/2023,06:09:00,0.010,0.0,0.001,0.0
20/06/2023,06:10:00,0.010,0.0,0.001,0.0
20/06/2023,06:11:00,0.012,0.0,0.001,0.0
20/06/2023,06:12:00,0.013,0.0,0.001,0.0
20/06/2023,06:13:00,0.011,0.0,0.002,0.001
20/06/2023,06:14:00,0.013,0.0,0.002,0.0
20/06/2023,06:15:01,0.016,0.0,0.002,0.0
20/06/2023,06:16:01,0.017,0.0,0.002,0.0
20/06/2023,06:17:00,0.019,0.0,0.003,0.001
20/06/2023,06:18:00,0.023,0.0,0.003,0.0
20/06/2023,06:19:00,0.030,0.0,0.003,0.0
20/06/2023,06:20:00,0.031,0.0,0.004,0.001
20/06/2023,06:21:01,0.032,0.0,0.004,0.0
20/06/2023,06:22:00,0.033,0.0,0.005,0.001
20/06/2023,06:23:00,0.032,0.0,0.005,0.0
20/06/2023,06:24:01,0.028,0.0,0.006,0.001
20/06/2023,06:25:00,0.026,0.0,0.006,0.0
20/06/2023,06:26:01,0.022,0.0,0.007,0.001
20/06/2023,06:27:00,0.024,0.0,0.007,0.0
20/06/2023,06:28:00,0.031,0.0,0.008,0.001
20/06/2023,06:29:01,0.035,0.0,0.008,0.0
20/06/2023,06:30:00,0.026,0.0,0.009,0.001
20/06/2023,06:31:01,0.021,0.0,0.009,0.0
20/06/2023,06:32:00,0.019,0.0,0.009,0.0
20/06/2023,06:33:00,0.024,0.0,0.01,0.001
20/06/2023,06:34:00,0.030,0.0,0.01,0.0
20/06/2023,06:35:00,0.030,0.0,0.011,0.001
20/06/2023,06:36:00,0.028,0.0,0.011,0.0
20/06/2023,06:37:01,0.034,0.0,0.012,0.001
20/06/2023,06:38:00,0.048,0.0,0.012,0.0
20/06/2023,06:39:00,0.067,0.0,0.013,0.001
20/06/2023,06:40:00,0.059,0.0,0.014,0.001
20/06/2023,06:41:01,0.057,0.0,0.015,0.001
20/06/2023,06:42:00,0.056,0.0,0.016,0.001
20/06/2023,06:43:00,0.045,0.0,0.017,0.001
20/06/2023,06:44:00,0.043,0.0,0.018,0.001
20/06/2023,06:45:00,0.043,0.0,0.019,0.001
20/06/2023,06:46:00,0.053,0.0,0.019,0.0
20/06/2023,06:47:00,0.059,0.0,0.02,0.001
20/06/2023,06:48:01,0.074,0.0,0.021,0.001
20/06/2023,06:49:00,0.085,0.0,0.023,0.002
20/06/2023,06:50:01,0.093,0.0,0.024,0.001
20/06/2023,06:51:00,0.075,0.0,0.026,0.002
20/06/2023,06:52:00,0.064,0.0,0.027,0.001
20/06/2023,06:53:01,0.062,0.0,0.028,0.001
20/06/2023,06:54:00,0.069,0.0,0.029,0.001
20/06/2023,06:55:00,0.073,0.0,0.03,0.001
20/06/2023,06:56:01,0.066,0.0,0.031,0.001
20/06/2023,06:57:00,0.060,0.0,0.032,0.001
20/06/2023,06:58:01,0.067,0.0,0.033,0.001
20/06/2023,06:59:01,0.073,0.0,0.035,0.002
20/06/2023,07:00:00,0.072,0.0,0.036,0.001
20/06/2023,07:01:00,0.070,0.0,0.037,0.001
20/06/2023,07:02:01,0.071,0.0,0.038,0.001
20/06/2023,07:03:00,0.073,0.0,0.039,0.001
20/06/2023,07:04:00,0.071,0.0,0.041,0.002
20/06/2023,07:05:00,0.067,0.0,0.042,0.001
20/06/2023,07:06:00,0.064,0.0,0.043,0.001
20/06/2023,07:07:01,0.060,0.0,0.044,0.001
20/06/2023,07:08:00,0.059,0.0,0.045,0.001
20/06/2023,07:09:00,0.067,0.0,0.046,0.001
20/06/2023,07:10:00,0.067,0.0,0.047,0.001
20/06/2023,07:11:01,0.064,0.0,0.048,0.001
20/06/2023,07:12:00,0.064,0.0,0.049,0.001
20/06/2023,07:13:01,0.059,0.0,0.05,0.001
20/06/2023,07:14:00,0.059,0.0,0.051,0.001
20/06/2023,07:15:01,0.065,0.0,0.052,0.001
20/06/2023,07:16:00,0.069,0.0,0.053,0.001
20/06/2023,07:17:00,0.072,0.0,0.055,0.002
20/06/2023,07:18:00,0.069,0.0,0.056,0.001
20/06/2023,07:19:01,0.065,0.0,0.057,0.001
20/06/2023,07:20:00,0.065,0.0,0.058,0.001
20/06/2023,07:21:00,0.072,0.0,0.059,0.001
20/06/2023,07:22:00,0.085,0.0,0.06,0.001
20/06/2023,07:23:00,0.096,0.0,0.062,0.002
20/06/2023,07:24:00,0.090,0.0,0.064,0.002
20/06/2023,07:25:00,0.090,0.0,0.065,0.001
20/06/2023,07:26:01,0.093,0.0,0.067,0.002
20/06/2023,07:27:00,0.091,0.0,0.068,0.001
20/06/2023,07:28:01,0.088,0.0,0.07,0.002
20/06/2023,07:29:00,0.104,0.0,0.071,0.001
20/06/2023,07:30:01,0.126,0.0,0.073,0.002
20/06/2023,07:31:00,0.140,0.0,0.075,0.002
20/06/2023,07:32:01,0.153,0.0,0.078,0.003
20/06/2023,07:33:00,0.161,0.0,0.08,0.002
20/06/2023,07:34:01,0.154,0.0,0.083,0.003
20/06/2023,07:35:01,0.141,0.0,0.086,0.003
20/06/2023,07:35:59,0.137,0.0,0.088,0.002
20/06/2023,07:37:01,0.151,0.0,0.09,0.002
20/06/2023,07:38:00,0.153,0.0,0.093,0.003
20/06/2023,07:39:00,0.158,0.0,0.095,0.002
20/06/2023,07:40:00,0.168,0.0,0.098,0.003
20/06/2023,07:41:01,0.151,0.0,0.101,0.003
20/06/2023,07:42:01,0.148,0.0,0.103,0.002
20/06/2023,07:43:00,0.138,0.0,0.106,0.003
20/06/2023,07:44:00,0.136,0.0,0.108,0.002
20/06/2023,07:45:00,0.140,0.0,0.11,0.002
20/06/2023,07:46:01,0.154,0.0,0.113,0.003
20/06/2023,07:47:00,0.168,0.0,0.115,0.002
20/06/2023,07:48:01,0.166,0.0,0.118,0.003
20/06/2023,07:49:00,0.165,0.0,0.121,0.003
20/06/2023,07:50:01,0.179,0.0,0.124,0.003
20/06/2023,07:51:01,0.190,0.0,0.127,0.003
20/06/2023,07:52:01,0.167,0.0,0.13,0.003
20/06/2023,07:53:00,0.156,0.0,0.132,0.002
20/06/2023,07:54:00,0.163,0.0,0.135,0.003
20/06/2023,07:55:01,0.174,0.0,0.138,0.003
20/06/2023,07:56:00,0.167,0.0,0.141,0.003
20/06/2023,07:57:00,0.161,0.0,0.144,0.003
20/06/2023,07:58:00,0.165,0.0,0.146,0.002
20/06/2023,07:59:01,0.167,0.0,0.149,0.003
20/06/2023,08:00:01,0.162,0.0,0.152,0.003
20/06/2023,08:01:00,0.168,0.0,0.154,0.002
20/06/2023,08:02:00,0.177,0.0,0.157,0.003
20/06/2023,08:03:00,0.198,0.0,0.16,0.003
20/06/2023,08:04:01,0.215,0.0,0.164,0.004
20/06/2023,08:05:01,0.220,1.0,0.168,0.004
20/06/2023,08:06:00,0.205,0.0,0.171,0.003
20/06/2023,08:07:01,0.191,0.0,0.174,0.003
20/06/2023,08:08:01,0.177,0.0,0.178,0.004
20/06/2023,08:09:00,0.169,0.0,0.18,0.002
20/06/2023,08:10:00,0.192,0.0,0.183,0.003
20/06/2023,08:11:00,0.213,0.0,0.187,0.004
20/06/2023,08:12:00,0.247,1.0,0.191,0.004
20/06/2023,08:13:05,0.278,1.0,0.195,0.004
20/06/2023,08:14:01,0.308,1.0,0.2,0.005
20/06/2023,08:15:01,0.279,1.0,0.205,0.005
20/06/2023,08:16:01,0.335,1.0,0.21,0.005
20/06/2023,08:17:01,0.396,1.0,0.216,0.006
20/06/2023,08:18:00,0.408,1.0,0.223,0.007
20/06/2023,08:19:00,0.319,1.0,0.229,0.006
20/06/2023,08:20:00,0.279,1.0,0.234,0.005
20/06/2023,08:21:01,0.319,1.0,0.239,0.005
20/06/2023,08:22:00,0.320,1.0,0.244,0.005
20/06/2023,08:23:00,0.354,1.0,0.249,0.005
20/06/2023,08:24:00,0.359,1.0,0.256,0.007
20/06/2023,08:25:01,0.314,1.0,0.261,0.005
20/06/2023,08:26:00,0.367,1.0,0.267,0.006
20/06/2023,08:27:00,0.411,1.0,0.273,0.006
20/06/2023,08:28:01,0.409,1.0,0.28,0.007
20/06/2023,08:29:00,0.384,1.0,0.287,0.007
20/06/2023,08:30:00,0.331,1.0,0.293,0.006
20/06/2023,08:31:01,0.283,1.0,0.298,0.005
20/06/2023,08:32:01,0.250,1.0,0.302,0.004
20/06/2023,08:32:59,0.262,1.0,0.306,0.004
20/06/2023,08:34:22,0.280,1.0,0.313,0.007
20/06/2023,08:36:01,0.306,1.0,0.321,0.008
20/06/2023,08:37:00,0.279,1.0,0.326,0.005
20/06/2023,08:38:01,0.248,1.0,0.33,0.004
20/06/2023,08:39:00,0.291,1.0,0.334,0.004
20/06/2023,08:40:00,0.317,1.0,0.339,0.005
20/06/2023,08:41:01,0.396,1.0,0.345,0.006
20/06/2023,08:42:00,0.576,1.0,0.353,0.008
20/06/2023,08:43:01,0.577,1.0,0.363,0.01
20/06/2023,08:44:00,0.593,1.0,0.373,0.01
20/06/2023,08:45:00,0.702,2.0,0.384,0.011
20/06/2023,08:46:00,0.727,2.0,0.396,0.012
20/06/2023,08:47:00,0.713,2.0,0.408,0.012
20/06/2023,08:48:01,0.682,2.0,0.42,0.012
20/06/2023,08:49:00,0.578,1.0,0.43,0.01
20/06/2023,08:50:00,0.568,1.0,0.439,0.009
20/06/2023,08:51:01,0.606,1.0,0.449,0.01
20/06/2023,08:52:00,0.574,1.0,0.459,0.01
20/06/2023,08:53:01,0.531,1.0,0.468,0.009
20/06/2023,08:54:01,0.435,1.0,0.476,0.008
20/06/2023,08:55:01,0.366,1.0,0.483,0.007
20/06/2023,08:56:00,0.345,1.0,0.489,0.006
20/06/2023,08:57:00,0.350,1.0,0.494,0.005
20/06/2023,08:58:00,0.383,1.0,0.501,0.007
20/06/2023,08:59:00,0.392,1.0,0.507,0.006
20/06/2023,09:00:02,0.374,1.0,0.514,0.007
20/06/2023,09:01:01,0.418,1.0,0.52,0.006
20/06/2023,09:02:01,0.346,1.0,0.527,0.007
20/06/2023,09:03:00,0.235,1.0,0.531,0.004
20/06/2023,09:04:01,0.214,0.0,0.535,0.004
20/06/2023,09:05:01,0.204,0.0,0.539,0.004
20/06/2023,09:06:00,0.192,0.0,0.542,0.003
20/06/2023,09:07:00,0.164,0.0,0.545,0.003
20/06/2023,09:08:00,0.188,0.0,0.548,0.003
20/06/2023,09:09:01,0.165,0.0,0.551,0.003
20/06/2023,09:10:01,0.155,0.0,0.553,0.002
20/06/2023,09:11:02,0.200,0.0,0.556,0.003
20/06/2023,09:12:01,0.210,0.0,0.56,0.004
20/06/2023,09:13:01,0.255,1.0,0.563,0.003
20/06/2023,09:14:01,0.227,1.0,0.567,0.004
20/06/2023,09:15:00,0.236,1.0,0.571,0.004
20/06/2023,09:16:00,0.223,1.0,0.575,0.004
20/06/2023,09:17:00,0.179,0.0,0.579,0.004
20/06/2023,09:18:00,0.201,0.0,0.582,0.003
20/06/2023,09:19:00,0.227,1.0,0.585,0.003
20/06/2023,09:20:00,0.188,0.0,0.589,0.004
20/06/2023,09:21:01,0.161,0.0,0.592,0.003
20/06/2023,09:22:01,0.193,0.0,0.595,0.003
20/06/2023,09:23:01,0.162,0.0,0.598,0.003
20/06/2023,09:24:00,0.137,0.0,0.6,0.002
20/06/2023,09:26:01,0.188,0.0,0.605,0.005
20/06/2023,09:28:01,0.167,0.0,0.612,0.007
20/06/2023,09:30:01,0.198,0.0,0.616,0.004
20/06/2023,09:32:02,0.291,1.0,0.626,0.01
20/06/2023,09:34:01,0.166,0.0,0.634,0.008
20/06/2023,09:36:01,0.123,0.0,0.638,0.004
20/06/2023,09:38:02,0.120,0.0,0.643,0.005
20/06/2023,09:40:02,0.277,1.0,0.648,0.005
20/06/2023,09:42:01,0.651,1.0,0.664,0.016
20/06/2023,09:44:01,0.805,2.0,0.689,0.025
20/06/2023,09:46:01,0.801,2.0,0.717,0.028
20/06/2023,09:48:01,0.570,1.0,0.74,0.023
20/06/2023,09:50:01,0.339,1.0,0.755,0.015
20/06/2023,09:52:01,0.233,1.0,0.764,0.009
20/06/2023,09:54:01,0.227,1.0,0.771,0.007
20/06/2023,09:56:01,0.768,2.0,0.786,0.015
20/06/2023,09:58:02,0.791,2.0,0.814,0.028
20/06/2023,10:00:01,0.796,2.0,0.84,0.026
20/06/2023,10:02:01,1.714,4.0,0.874,0.034
20/06/2023,10:04:01,0.926,2.0,0.919,0.045
20/06/2023,10:06:01,0.953,2.0,0.949,0.03
20/06/2023,10:08:02,0.742,2.0,0.98,0.031
20/06/2023,10:10:01,0.504,1.0,1.0,0.02
20/06/2023,10:12:01,0.639,1.0,1.018,0.018
20/06/2023,10:14:01,0.919,2.0,1.047,0.029
20/06/2023,10:16:01,1.057,2.0,1.081,0.034
20/06/2023,10:18:02,1.038,2.0,1.116,0.035
20/06/2023,10:20:01,0.970,2.0,1.149,0.033
20/06/2023,10:22:01,1.136,3.0,1.183,0.034
20/06/2023,10:24:01,1.352,3.0,1.229,0.046
20/06/2023,10:25:00,1.300,3.0,1.252,0.023
20/06/2023,10:27:02,1.163,3.0,1.293,0.041
20/06/2023,10:29:01,1.176,3.0,1.332,0.039
20/06/2023,10:31:02,1.174,3.0,1.372,0.04
20/06/2023,10:33:02,1.036,2.0,1.409,0.037
20/06/2023,10:35:01,0.995,2.0,1.442,0.033
20/06/2023,10:37:01,0.893,2.0,1.474,0.032
20/06/2023,10:39:02,0.798,2.0,1.501,0.027
20/06/2023,10:41:02,0.795,2.0,1.529,0.028
20/06/2023,10:43:02,0.874,2.0,1.557,0.028
20/06/2023,10:45:01,0.937,2.0,1.587,0.03